FENGYUN 1C DEB

Satellite information

Favourite Embed

Satellite Type and Status

DEBRISIN ORBIT

Key statistics

Satellite FENGYUN 1C DEB at a glance.

Uptime

9616

Days in orbit

Revolutions

≈ 14.1

Per day

Orbit

SSO

Sun Synchronous Orbit

Inclination

98.8

Latest

Satellite identification and parameters

Extended collection of information and parameters for FENGYUN 1C DEB.

Object identification

Identified? True

Debris? True

Object name: FENGYUN 1C DEB

International designator: 1999-025CUR

Object number (NORAD): 32195

Object ID (CCSDS): 32195

Country: PEOPLES REPUBLIC OF CHINA (PRC)

Current information (Y/N): Y

RCS size: SMALL

Orbital parameters

Period: 102.257 minutes

Inclination: 98.7744 deg

SMA: 7243.623 km

Apoapsis: 915.13 km

Periapsis: 815.846 km

RAAN: 253.375 deg

Eccentricy: 0.00685319

Argument of periapsis: 216.7979 deg

Mean anomaly: 142.8477 deg

Mean motion: 14.08215038 rev/day

Mean motion (dot): 0.00000926 rev/day2

B* drag term: 0.00055583903 1/REarth

Two-line elements (TLE)

Creation date: Sept. 5, 2025, 10:27 a.m.

Reference frame: TEME

Reference center: EARTH

Epoch: Sept. 5, 2025, 6:29 a.m. UTC

TLE line 0: 0 FENGYUN 1C DEB

TLE line 1: 1 32195U 99025CUR 25248.27043902 .00000926 00000-0 55584-3 0 9990

TLE line 2: 2 32195 98.7744 253.3750 0068532 216.7979 142.8477 14.08215038625964

Live tracking on map

Real-time ground track for satellite FENGYUN 1C DEB.

In-orbit conjunctions

A list of the most updated potential collisions computed for object FENGYUN 1C DEB.

Target Orbit TCA Probability of collision Miss distance Type
SL-12 R/B(AUX MOTOR) LEO 2025-01-01 22:20:54 0.0001601714 478.0 (m) ROCKET BODY
CZ-6A DEB SSO 2024-11-09 20:12:57 0.0002643585 687.0 (m) DEBRIS

Associated space launch

Chinese polar orbiting meteorological satellite

FENGYUN 1C DEB was lifted into orbit during the mission ‘Long March 4B | Feng Yun 1C’, on board a Long March 4B space rocket.

The launch took place on May 10, 1999, 1:33 a.m. from Launch Complex 7.

For more information about the launch, click the button.

Launch to space Long March 4B | Feng Yun 1C
Long March 4B | Feng Yun 1C

Agency: N/A

Status: Launch Successful

Launch date: May 10, 1999, 1:33 a.m. UTC

Rocket: Long March 4B

Launch pad: Launch Complex 7

Location: Taiyuan Satellite Launch Center, People's Republic of China

...

Latest news about this satellite

There are no fresh news available about this satellite. Check back as we update our databases every day.


Newsletter sign-up

Weekly statistics, charts and insights to help you stay on top of the space industry.